Weather History for Wahpeton, ND

Change the Weather History Date:

Sunday, December 22, 2013

  Actual Average (KFFM) Record (KFFM)
Temperature  
Mean Temperature -6 °F -  
Max Temperature -2 °F 19 °F 43 °F (1957)
Min Temperature -9 °F 3 °F -28 °F (1989)
Degree Days  
Heating Degree Days 70    
Moisture  
Dew Point -12 °F    
Average Humidity 74    
Maximum Humidity 85    
Minimum Humidity 65    
Precipitation  
Precipitation 0.00 in - - ()
Sea Level Pressure  
Sea Level Pressure 30.22 in    
Wind  
Wind Speed 14 mph (NNW)    
Max Wind Speed 20 mph    
Max Gust Speed 23 mph    
Visibility 9 miles    
Events      
Averages and records for this station are not official NWS values.
T = Trace of Precipitation, MM = Missing Value Source: NWS Daily Summary

Daily Weather History Graph

Daily Weather History Graph

Search for Another Location

Airport:

Trip Planner

Search our weather history database for the weather conditions in past years. The results will help you decide how hot, cold, wet, or windy it might be!

Date:

Astronomy

Dec. 22, 2013 Rise Set
Actual Time 8:06 AM CST 4:43 PM CST
Civil Twilight 7:32 AM CST 5:18 PM CST
Nautical Twilight 6:53 AM CST 5:56 PM CST
Astronomical Twilight 6:17 AM CST 6:33 PM CST
Moon 10:13 PM CST 10:48 AM CST
Length of Visible Light 9h 46m
Length of Day
8h 36m
Waning Gibbous, 76% of the Moon is Illuminated
Dec 22
Waning Gibbous
Dec 25
Last Quarter
Jan 1
New
Jan 7
First Quarter
Jan 15
Full

Hourly Weather History & Observations

Time (CST) Temp. Windchill Dew Point Humidity Pressure Visibility Wind Dir Wind Speed Gust Speed Precip Events Conditions
12:15 AM -4.0 °F -23.0 °F -9.4 °F 78% 30.09 in 10.0 mi North 12.7 mph - N/A   Scattered Clouds
12:35 AM -4.0 °F -23.7 °F -9.4 °F 78% 30.09 in 10.0 mi NNW 13.8 mph - N/A   Mostly Cloudy
12:55 AM -4.0 °F -23.0 °F -9.4 °F 78% 30.09 in 10.0 mi North 12.7 mph - N/A   Overcast
1:15 AM -4.0 °F -24.5 °F -9.4 °F 78% 30.09 in 10.0 mi North 15.0 mph - N/A   Overcast
1:35 AM -4.0 °F -25.2 °F -7.6 °F 85% 30.10 in 10.0 mi NNW 16.1 mph - N/A   Overcast
1:55 AM -4.0 °F -23.7 °F -7.6 °F 85% 30.11 in 10.0 mi NNW 13.8 mph - N/A   Overcast
2:15 AM -2.2 °F -20.7 °F -7.6 °F 78% 30.12 in 10.0 mi NNW 12.7 mph - N/A   Overcast
2:35 AM -2.2 °F -21.5 °F -7.6 °F 78% 30.12 in 10.0 mi NNW 13.8 mph - N/A   Overcast
2:55 AM -4.0 °F -23.7 °F -7.6 °F 85% 30.13 in 10.0 mi NNW 13.8 mph 17.3 mph N/A   Overcast
3:15 AM -4.0 °F -23.7 °F -9.4 °F 78% 30.13 in 10.0 mi NNW 13.8 mph - N/A   Overcast
3:35 AM -4.0 °F -25.8 °F -9.4 °F 78% 30.13 in 10.0 mi NNW 17.3 mph - N/A   Overcast
3:55 AM -4.0 °F -24.5 °F -9.4 °F 78% 30.13 in 10.0 mi NNW 15.0 mph - N/A   Overcast
4:15 AM -4.0 °F -23.0 °F -9.4 °F 78% 30.13 in 10.0 mi NNW 12.7 mph - N/A   Overcast
4:35 AM -4.0 °F -23.7 °F -9.4 °F 78% 30.13 in 10.0 mi NNW 13.8 mph - N/A   Overcast
4:55 AM -4.0 °F -23.7 °F -9.4 °F 78% 30.13 in 10.0 mi NNW 13.8 mph - N/A   Overcast
5:15 AM -4.0 °F -23.7 °F -9.4 °F 78% 30.13 in 10.0 mi North 13.8 mph - N/A   Mostly Cloudy
5:35 AM -4.0 °F -24.5 °F -9.4 °F 78% 30.13 in 10.0 mi NNW 15.0 mph - N/A   Mostly Cloudy
5:55 AM -4.0 °F -25.2 °F -9.4 °F 78% 30.13 in 10.0 mi NNW 16.1 mph - N/A   Mostly Cloudy
6:15 AM -4.0 °F -23.7 °F -9.4 °F 78% 30.14 in 10.0 mi NNW 13.8 mph - N/A   Mostly Cloudy
6:35 AM -5.8 °F -26.8 °F -13.0 °F 71% 30.15 in 10.0 mi NNW 15.0 mph - N/A   Mostly Cloudy
6:55 AM -5.8 °F -25.2 °F -13.0 °F 71% 30.16 in 10.0 mi NNW 12.7 mph 20.7 mph N/A   Overcast
7:15 AM -7.6 °F -28.3 °F -13.0 °F 77% 30.16 in 10.0 mi NNW 13.8 mph 19.6 mph N/A   Mostly Cloudy
7:35 AM -5.8 °F -27.5 °F -13.0 °F 71% 30.16 in 10.0 mi NNW 16.1 mph - N/A   Mostly Cloudy
7:55 AM -5.8 °F -26.8 °F -11.2 °F 77% 30.16 in 10.0 mi NNW 15.0 mph 20.7 mph N/A   Overcast
8:15 AM -5.8 °F -26.8 °F -13.0 °F 71% 30.17 in 10.0 mi NNW 15.0 mph - N/A   Overcast
8:35 AM -5.8 °F -26.0 °F -13.0 °F 71% 30.17 in 10.0 mi NNW 13.8 mph 21.9 mph N/A   Mostly Cloudy
8:55 AM -5.8 °F -26.0 °F -13.0 °F 71% 30.18 in 10.0 mi NNW 13.8 mph - N/A   Scattered Clouds
9:15 AM -5.8 °F -26.8 °F -13.0 °F 71% 30.18 in 10.0 mi NNW 15.0 mph 18.4 mph N/A   Scattered Clouds
9:35 AM -5.8 °F -26.8 °F -13.0 °F 71% 30.18 in 10.0 mi NNW 15.0 mph 18.4 mph N/A   Scattered Clouds
9:55 AM -5.8 °F -26.0 °F -11.2 °F 77% 30.19 in 10.0 mi NNW 13.8 mph - N/A   Clear
10:15 AM -5.8 °F -26.0 °F -11.2 °F 77% 30.20 in 10.0 mi NNW 13.8 mph 19.6 mph N/A   Scattered Clouds
10:35 AM -4.0 °F -23.7 °F -11.2 °F 71% 30.20 in 10.0 mi NNW 13.8 mph - N/A   Clear
10:55 AM -5.8 °F -24.4 °F -13.0 °F 71% 30.21 in 10.0 mi NNW 11.5 mph - N/A   Clear
11:15 AM -4.0 °F -24.5 °F -13.0 °F 65% 30.21 in 10.0 mi NNW 15.0 mph - N/A   Clear
11:35 AM -4.0 °F -22.1 °F -11.2 °F 71% 30.21 in 10.0 mi NNW 11.5 mph - N/A   Clear
11:55 AM -4.0 °F -22.1 °F -11.2 °F 71% 30.21 in 10.0 mi NNW 11.5 mph - N/A   Clear
12:15 PM -4.0 °F -25.8 °F -13.0 °F 65% 30.20 in 10.0 mi NNW 17.3 mph 23.0 mph N/A   Mostly Cloudy
12:35 PM -4.0 °F -23.7 °F -11.2 °F 71% 30.20 in 10.0 mi NNW 13.8 mph - N/A   Overcast
12:55 PM -4.0 °F -25.2 °F -11.2 °F 71% 30.20 in 10.0 mi NNW 16.1 mph 20.7 mph N/A   Mostly Cloudy
1:15 PM -4.0 °F -25.2 °F -11.2 °F 71% 30.21 in 7.0 mi NNW 16.1 mph - N/A   Mostly Cloudy
1:35 PM -4.0 °F -26.4 °F -11.2 °F 71% 30.21 in 5.0 mi NNW 18.4 mph - N/A   Overcast
1:55 PM -4.0 °F -27.0 °F -9.4 °F 78% 30.21 in 4.0 mi NNW 19.6 mph - N/A   Mostly Cloudy
2:15 PM -4.0 °F -26.4 °F -9.4 °F 78% 30.21 in 4.0 mi NNW 18.4 mph 23.0 mph N/A   Scattered Clouds
2:35 PM -2.2 °F -23.5 °F -9.4 °F 71% 30.22 in 7.0 mi NNW 17.3 mph - N/A   Mostly Cloudy
2:55 PM -4.0 °F -26.4 °F -9.4 °F 78% 30.23 in 5.0 mi NNW 18.4 mph 21.9 mph N/A   Overcast
3:15 PM -4.0 °F -25.2 °F -11.2 °F 71% 30.24 in 7.0 mi NNW 16.1 mph - N/A   Overcast
3:35 PM -4.0 °F -24.5 °F -11.2 °F 71% 30.25 in 7.0 mi NNW 15.0 mph 21.9 mph N/A   Overcast
3:55 PM -4.0 °F -24.5 °F -9.4 °F 78% 30.26 in 10.0 mi NNW 15.0 mph - N/A   Overcast
4:15 PM -4.0 °F -24.5 °F -9.4 °F 78% 30.27 in 5.0 mi NNW 15.0 mph 23.0 mph N/A   Overcast
4:35 PM -4.0 °F -23.7 °F -9.4 °F 78% 30.28 in 7.0 mi NNW 13.8 mph - N/A   Overcast
4:55 PM -4.0 °F -21.2 °F -9.4 °F 78% 30.28 in 10.0 mi NNW 10.4 mph 18.4 mph N/A   Overcast
5:15 PM -5.8 °F -26.8 °F -11.2 °F 77% 30.29 in 10.0 mi NNW 15.0 mph 18.4 mph N/A   Scattered Clouds
5:35 PM -5.8 °F -26.8 °F -11.2 °F 77% 30.30 in 10.0 mi NNW 15.0 mph 19.6 mph N/A   Scattered Clouds
5:55 PM -5.8 °F -26.0 °F -11.2 °F 77% 30.30 in 10.0 mi NNW 13.8 mph 18.4 mph N/A   Mostly Cloudy
6:15 PM -5.8 °F -26.0 °F -11.2 °F 77% 30.31 in 10.0 mi NNW 13.8 mph - N/A   Overcast
6:35 PM -5.8 °F -28.8 °F -11.2 °F 77% 30.31 in 10.0 mi NNW 18.4 mph 21.9 mph N/A   Mostly Cloudy
6:55 PM -5.8 °F -27.5 °F -13.0 °F 71% 30.31 in 10.0 mi NNW 16.1 mph 21.9 mph N/A   Scattered Clouds
7:15 PM -5.8 °F -27.5 °F -13.0 °F 71% 30.31 in 10.0 mi North 16.1 mph 21.9 mph N/A   Clear
7:35 PM -5.8 °F -26.8 °F -14.8 °F 65% 30.32 in 10.0 mi North 15.0 mph 23.0 mph N/A   Clear
7:55 PM -7.6 °F -29.1 °F -14.8 °F 71% 30.33 in 10.0 mi NNW 15.0 mph 20.7 mph N/A   Clear
8:15 PM -7.6 °F -28.3 °F -14.8 °F 71% 30.34 in 10.0 mi NNW 13.8 mph - N/A   Clear
8:35 PM -7.6 °F -30.5 °F -14.8 °F 71% 30.34 in 10.0 mi NNW 17.3 mph 21.9 mph N/A   Clear
8:55 PM -7.6 °F -27.5 °F -14.8 °F 71% 30.35 in 10.0 mi NNW 12.7 mph - N/A   Clear
9:15 PM -7.6 °F -28.3 °F -16.6 °F 65% 30.36 in 10.0 mi NNW 13.8 mph - N/A   Clear
9:35 PM -9.4 °F -29.8 °F -16.6 °F 71% 30.36 in 10.0 mi NNW 12.7 mph - N/A   Clear
9:55 PM -9.4 °F -30.6 °F -16.6 °F 71% 30.37 in 10.0 mi NNW 13.8 mph - N/A   Clear
10:15 PM -9.4 °F -30.6 °F -16.6 °F 71% 30.38 in 10.0 mi NNW 13.8 mph - N/A   Clear
10:35 PM -9.4 °F -29.8 °F -16.6 °F 71% 30.39 in 10.0 mi NNW 12.7 mph - N/A   Clear
10:55 PM -9.4 °F -29.8 °F -18.4 °F 65% 30.40 in 10.0 mi NNW 12.7 mph - N/A   Clear
11:15 PM -9.4 °F -30.6 °F -18.4 °F 65% 30.40 in 10.0 mi NNW 13.8 mph 19.6 mph N/A   Clear
11:35 PM -9.4 °F -29.8 °F -18.4 °F 65% 30.41 in 10.0 mi NNW 12.7 mph 18.4 mph N/A   Clear
11:55 PM -9.4 °F -28.9 °F -18.4 °F 65% 30.42 in 10.0 mi NNW 11.5 mph - N/A   Clear